When you browse on this site, cookies collect data to enhance your experience and personalize the content and advertising you see.
Visit our Privacy Policy to learn more. By continuing to use the site, you agree to this use of cookies and data.

Hourly Weather Nzérékoré

Today, 6 July, Monday

Time Temperature Precipitation Wind Pressure Humidity
00:00 +26°C° 0.3 mm 1 mps 745 mmHg 91%
01:00 +25°C° 0 mm 1 mps 745 mmHg 90%
02:00 +25°C° 1 mm 1 mps 745 mmHg 92%
03:00 +25°C° 1 mm 1 mps 744 mmHg 95%
04:00 +24°C° 1 mm 2 mps 744 mmHg 97%
05:00 +24°C° 0 mm 2 mps 744 mmHg 97%
06:00 +24°C° 0 mm 1 mps 745 mmHg 97%
07:00 +24°C° 0 mm 1 mps 745 mmHg 96%
08:00 +26°C° 0.1 mm 1 mps 745 mmHg 92%
09:00 +27°C° 0.1 mm 1 mps 745 mmHg 87%
10:00 +28°C° 0.1 mm 1 mps 746 mmHg 83%
11:00 +29°C° 0.1 mm 2 mps 745 mmHg 78%
12:00 +30°C° 0.1 mm 2 mps 744 mmHg 73%
13:00 +31°C° 0.1 mm 2 mps 744 mmHg 69%
14:00 +31°C° 0.2 mm 2 mps 743 mmHg 69%
15:00 +31°C° 0.2 mm 2 mps 742 mmHg 69%
16:00 +32°C° 0.2 mm 2 mps 741 mmHg 69%
17:00 +30°C° 0.3 mm 2 mps 741 mmHg 75%
18:00 +29°C° 0.3 mm 2 mps 742 mmHg 82%
19:00 +28°C° 0.3 mm 2 mps 742 mmHg 88%
20:00 +27°C° 1 mm 2 mps 742 mmHg 90%
21:00 +27°C° 1 mm 2 mps 743 mmHg 91%
22:00 +26°C° 1 mm 2 mps 744 mmHg 92%
23:00 +26°C° 1 mm 3 mps 744 mmHg 93%

Tomorrow, 7 July, Tuesday

Time Temperature Precipitation Wind Pressure Humidity
00:00 +25°C° 1 mm 3 mps 744 mmHg 93%
01:00 +25°C° 1 mm 3 mps 743 mmHg 94%
02:00 +25°C° 0.3 mm 3 mps 743 mmHg 95%
03:00 +25°C° 0.3 mm 3 mps 743 mmHg 95%
04:00 +24°C° 0.3 mm 2 mps 743 mmHg 96%
05:00 +25°C° 0.1 mm 2 mps 743 mmHg 96%
06:00 +25°C° 0.1 mm 2 mps 744 mmHg 96%
07:00 +25°C° 0.1 mm 2 mps 744 mmHg 96%
08:00 +26°C° 0 mm 2 mps 744 mmHg 93%
09:00 +27°C° 0 mm 2 mps 744 mmHg 90%
10:00 +28°C° 0 mm 2 mps 744 mmHg 86%
11:00 +28°C° 0.2 mm 2 mps 744 mmHg 84%
12:00 +29°C° 0.2 mm 2 mps 743 mmHg 81%
13:00 +30°C° 0.2 mm 2 mps 743 mmHg 78%
14:00 +30°C° 1.2 mm 2 mps 742 mmHg 79%
15:00 +30°C° 1.2 mm 3 mps 742 mmHg 80%
16:00 +30°C° 1.2 mm 3 mps 741 mmHg 81%
17:00 +28°C° 1.3 mm 4 mps 742 mmHg 85%
18:00 +27°C° 1.3 mm 4 mps 742 mmHg 89%
19:00 +26°C° 1.3 mm 4 mps 743 mmHg 93%
20:00 +25°C° 0.1 mm 4 mps 743 mmHg 93%
21:00 +25°C° 0.1 mm 4 mps 744 mmHg 94%
22:00 +25°C° 0.1 mm 4 mps 745 mmHg 94%
23:00 +25°C° 0.2 mm 4 mps 745 mmHg 95%

Day after tomorrow, 8 July, Wednesday

Time Temperature Precipitation Wind Pressure Humidity
00:00 +24°C° 0.2 mm 3 mps 745 mmHg 95%
01:00 +24°C° 0.2 mm 2 mps 745 mmHg 96%
02:00 +24°C° 0 mm 2 mps 744 mmHg 96%
03:00 +24°C° 0 mm 2 mps 744 mmHg 96%
04:00 +24°C° 0 mm 2 mps 744 mmHg 96%
05:00 +24°C° 0.1 mm 2 mps 744 mmHg 96%
06:00 +24°C° 0.1 mm 2 mps 744 mmHg 96%
07:00 +24°C° 0.1 mm 2 mps 744 mmHg 96%
08:00 +25°C° 0.3 mm 2 mps 745 mmHg 94%
09:00 +25°C° 0.3 mm 2 mps 745 mmHg 92%
10:00 +26°C° 0.3 mm 2 mps 746 mmHg 89%
11:00 +27°C° 0 mm 2 mps 745 mmHg 85%
12:00 +28°C° 0 mm 2 mps 745 mmHg 80%
13:00 +29°C° 0 mm 2 mps 744 mmHg 75%
14:00 +30°C° 0 mm 2 mps 743 mmHg 74%
15:00 +30°C° 0 mm 2 mps 743 mmHg 73%
16:00 +30°C° 0 mm 2 mps 742 mmHg 72%
17:00 +29°C° 0 mm 2 mps 742 mmHg 78%
18:00 +28°C° 0 mm 2 mps 743 mmHg 84%
19:00 +27°C° 0 mm 2 mps 743 mmHg 90%
20:00 +26°C° 0 mm 2 mps 744 mmHg 91%
21:00 +26°C° 0 mm 2 mps 744 mmHg 92%
22:00 +26°C° 0 mm 2 mps 745 mmHg 92%
23:00 +25°C° 0 mm 2 mps 744 mmHg 92%

9 July, Thursday

Time Temperature Precipitation Wind Pressure Humidity
00:00 +25°C° 0 mm 2 mps 744 mmHg 93%
01:00 +25°C° 0 mm 2 mps 744 mmHg 93%
02:00 +25°C° 0 mm 2 mps 744 mmHg 94%
03:00 +25°C° 0 mm 2 mps 744 mmHg 94%
04:00 +24°C° 0 mm 2 mps 744 mmHg 95%
05:00 +24°C° 0 mm 2 mps 744 mmHg 95%
06:00 +25°C° 0 mm 1 mps 745 mmHg 94%
07:00 +25°C° 0 mm 1 mps 745 mmHg 93%
08:00 +26°C° 0.1 mm 1 mps 745 mmHg 90%
09:00 +26°C° 0.1 mm 1 mps 746 mmHg 87%
10:00 +27°C° 0.1 mm 1 mps 746 mmHg 84%
11:00 +28°C° 1 mm 1 mps 745 mmHg 80%
12:00 +29°C° 1 mm 1 mps 745 mmHg 77%
13:00 +30°C° 1 mm 1 mps 744 mmHg 73%
14:00 +31°C° 0.8 mm 1 mps 744 mmHg 73%
15:00 +31°C° 0.8 mm 1 mps 743 mmHg 72%
16:00 +31°C° 0.8 mm 1 mps 742 mmHg 72%
17:00 +30°C° 0.1 mm 2 mps 743 mmHg 76%
18:00 +29°C° 0.1 mm 2 mps 743 mmHg 80%
19:00 +28°C° 0.1 mm 2 mps 743 mmHg 85%
20:00 +27°C° 0.7 mm 2 mps 744 mmHg 87%
21:00 +26°C° 0.7 mm 3 mps 744 mmHg 90%
22:00 +25°C° 0.7 mm 3 mps 745 mmHg 93%
23:00 +25°C° 0.6 mm 3 mps 745 mmHg 94%

10 July, Friday

Time Temperature Precipitation Wind Pressure Humidity
00:00 +25°C° 0.6 mm 3 mps 745 mmHg 94%
01:00 +25°C° 0.6 mm 3 mps 745 mmHg 95%
02:00 +24°C° 1.1 mm 2 mps 744 mmHg 96%
03:00 +24°C° 1.1 mm 2 mps 744 mmHg 96%
04:00 +24°C° 1.1 mm 1 mps 744 mmHg 96%
05:00 +24°C° 0 mm 1 mps 744 mmHg 96%
06:00 +24°C° 0 mm 1 mps 745 mmHg 95%
07:00 +24°C° 0 mm 1 mps 745 mmHg 95%
08:00 +25°C° 0.1 mm 1 mps 745 mmHg 92%
09:00 +26°C° 0.1 mm 2 mps 746 mmHg 88%
10:00 +27°C° 0.1 mm 3 mps 746 mmHg 84%
11:00 +27°C° 1.5 mm 3 mps 745 mmHg 86%
12:00 +27°C° 1.5 mm 2 mps 745 mmHg 88%
13:00 +27°C° 1.5 mm 2 mps 745 mmHg 91%
14:00 +26°C° 1.5 mm 2 mps 744 mmHg 91%
15:00 +26°C° 1.5 mm 3 mps 744 mmHg 92%
16:00 +26°C° 1.5 mm 3 mps 743 mmHg 93%
17:00 +25°C° 0.9 mm 3 mps 744 mmHg 93%
18:00 +25°C° 0.9 mm 3 mps 744 mmHg 94%
19:00 +24°C° 0.9 mm 3 mps 744 mmHg 95%
20:00 +24°C° 0 mm 2 mps 745 mmHg 95%
21:00 +24°C° 0 mm 2 mps 745 mmHg 96%
22:00 +24°C° 0 mm 1 mps 746 mmHg 97%
23:00 +24°C° 0 mm 1 mps 746 mmHg 97%

11 July, Saturday

Time Temperature Precipitation Wind Pressure Humidity
00:00 +24°C° 0 mm 1 mps 746 mmHg 97%
01:00 +24°C° 0 mm 1 mps 745 mmHg 98%
02:00 +24°C° 0 mm 1 mps 745 mmHg 98%
03:00 +24°C° 0 mm 1 mps 745 mmHg 98%
04:00 +23°C° 0 mm 1 mps 745 mmHg 98%
05:00 +23°C° 0 mm 1 mps 745 mmHg 98%
06:00 +23°C° 0 mm 1 mps 745 mmHg 98%
07:00 +23°C° 0 mm 1 mps 745 mmHg 98%
08:00 +25°C° 0 mm 1 mps 746 mmHg 92%
09:00 +26°C° 0 mm 1 mps 746 mmHg 87%
10:00 +27°C° 0 mm 1 mps 746 mmHg 81%
11:00 +28°C° 0.1 mm 1 mps 746 mmHg 78%
12:00 +29°C° 0.1 mm 2 mps 745 mmHg 75%
13:00 +30°C° 0.1 mm 2 mps 744 mmHg 71%
14:00 +30°C° 0.3 mm 2 mps 744 mmHg 72%
15:00 +30°C° 0.3 mm 2 mps 743 mmHg 72%
16:00 +30°C° 0.3 mm 2 mps 742 mmHg 72%
17:00 +29°C° 0.3 mm 1 mps 742 mmHg 77%
18:00 +28°C° 0.3 mm 1 mps 743 mmHg 82%
19:00 +27°C° 0.3 mm 1 mps 743 mmHg 87%
20:00 +26°C° 0.7 mm 1 mps 743 mmHg 88%
21:00 +26°C° 0.7 mm 1 mps 744 mmHg 90%
22:00 +26°C° 0.7 mm 2 mps 744 mmHg 92%
23:00 +25°C° 1.7 mm 2 mps 744 mmHg 93%
Show more